Regional Weather Roundup
Issued by NWS

Home | Current Version | Previous Version | Graphics & Text | Print | Product List | Glossary On
Versions: 1 2 3 4 5 6 7 8 9 10 11 12 13 14 15 16 17 18 19 20 21 22 23 24 25 26 27 28 29 30 31 32 33 34 35 36 37 38 39 40 41 42 43 44 45 46 47 48 49 50
000
ASUS43 KMPX 290210
RWRMN
WEATHER ROUNDUP FOR MINNESOTA
NATIONAL WEATHER SERVICE TWIN CITIES/CHANHASSEN MN
900 PM CDT MON JUL 28 2014


NOTE: "FAIR" INDICATES FEW OR NO CLOUDS BELOW 12,000 FEET WITH NO
SIGNIFICANT WEATHER AND/OR OBSTRUCTIONS TO VISIBILITY. N/A MEANS
CURRENT SKY AND/OR WEATHER CONDITIONS ARE NOT AVAILABLE.

MNZ060>063-068>070-290300-
   Twin Cities Metro

CITY           SKY/WX    TMP DP  RH WIND       PRES   REMARKS
TWIN CITIES    PTCLDY    69  54  58 NW6       30.13S
ST PAUL        CLEAR     70  52  52 NW6       30.13R
CRYSTAL        PTCLDY    69  53  56 NW5       30.12S
BLAINE         PTCLDY    70  55  60 NW5       30.13S
LAKEVILLE      CLEAR     64  55  72 W5        30.13S
EDEN PRAIRIE   CLEAR     69  55  60 NW3       30.13S HAZE
SOUTH ST PAUL  CLEAR     70  51  51 NW3       30.12S
LAKE ELMO      FAIR      64  59  82 CALM      30.13S
$$
MNZ001>005-007-008-013>017-022>024-027-028-290300-
   Northwest Minnesota

CITY           SKY/WX    TMP DP  RH WIND       PRES   REMARKS
BEMIDJI        CLEAR     62  54  73 W5        30.17S
HALLOCK        CLEAR     68  57  68 NW5       30.17S
ROSEAU           N/A     68  57  68 W7        30.16S
WARROAD        CLOUDY    70  59  68 W6        30.16R
THIEF RVR FALL CLEAR     66  55  68 NW6       30.18S
CROOKSTON      CLEAR     64  59  82 NW5       30.19S
FOSSTON        CLEAR     63  54  72 W3        30.19S
DETROIT LAKES  CLEAR     64  55  72 N3        30.20S
MOORHEAD       CLEAR     68  61  77 CALM      30.19S
PARK RAPIDS    CLEAR     61  54  77 NW6       30.18R
$$
MNZ006-009>011-018-025>026-290300-
   North Central Minnesota

CITY           SKY/WX    TMP DP  RH WIND       PRES   REMARKS
BAUDETTE       CLEAR     68  57  68 CALM      30.15S
FLAG ISLAND    PTCLDY    73  57  56 NW9       30.12S
INTL FALLS     CLEAR     64  57  78 W5        30.12S
WASKISH        CLEAR     68  55  64 CALM      30.15S
BIG FORK       CLEAR     63  57  82 W1        30.15S
LONGVILLE      CLEAR     63  55  77 CALM      30.16R
GRAND RAPIDS   MOCLDY    66  52  59 NW8       30.15R
CRANE LAKE     CLEAR     57  57 100 CALM      30.12S
ORR            CLEAR     61  55  82 CALM      30.10S
COOK           CLEAR     64  55  72 CALM      30.13R
$$
MNZ012-019>021-037-290300-
   Northeast Minnesota

CITY           SKY/WX    TMP DP  RH WIND       PRES   REMARKS
DULUTH         PTCLDY    65  54  67 NW6       30.10S
ELY            CLEAR     64  55  72 NW3       30.10S
HIBBING        PTCLDY    65  54  67 NW5       30.12S
EVELETH        CLEAR     64  52  63 NW3       30.13R
DULUTH HARBOR  CLOUDY    72  59  64 W7        30.09R
TWO HARBORS    CLEAR     63  55  77 CALM      30.07S
SILVER BAY     CLEAR     63  57  82 CALM      30.07R
GRAND MARAIS     N/A     58  53  84 CALM      30.03S
G MARAIS ARPRT PTCLDY    61  52  72 NW5       30.09S
$$
MNZ029>031-032-039>041-046>048-054>057-064-290300-
   West Central Minnesota

CITY           SKY/WX    TMP DP  RH WIND       PRES   REMARKS
FERGUS FALLS   CLEAR     64  52  63 N6        30.18S
WHEATON        CLEAR     63  54  72 W5        30.21S
MORRIS         CLEAR     63  55  77 NW3       30.18S
ALEXANDRIA     CLEAR     67  53  61 NW7       30.20R
ELBOW LAKE     FAIR      63  55  74 NW5       30.19S
WADENA         CLEAR     63  55  77 NW3       30.18S
GLENWOOD       CLEAR     63  55  77 NW6       30.19S
APPLETON       CLEAR     63  55  77 NW5       30.18S
BENSON         CLEAR     63  55  77 NW5       30.19R
ORTONVILLE     CLEAR     64  52  63 NW6       30.20S
MADISON        CLEAR     66  55  68 NW5       30.19F
WILLMAR        FAIR      66  54  63 NW7       30.19S
$$
MNZ033>034-036-042>043-049>051-058-059-290300-
   Central Minnesota

CITY           SKY/WX    TMP DP  RH WIND       PRES   REMARKS
ST CLOUD       PTCLDY    68  55  63 NW5       30.15R
SAUK CENTRE    FAIR      66  54  65 NW6       30.18R
PAYNESVILLE    CLEAR     62  54  73 W3        30.18R
AITKIN         CLEAR     66  55  68 CALM      30.14R
PINE RIVER     CLEAR     66  55  68 NW3       30.19S
BRAINERD       CLEAR     67  54  63 NW6       30.16R
STAPLES        PTCLDY    63  55  77 W5        30.17S
LONG PRAIRIE   FAIR      63  54  72 NW6       30.18S
LITTLE FALLS   CLEAR     64  54  68 CALM      30.16S
LITCHFIELD     CLEAR     70  55  60 NW5       30.17R
BUFFALO        CLEAR     69  54  57 CALM      30.15S
MAPLE LAKE     MOCLDY    69  57  65 NW3       30.16S
$$
MNZ037-044-045-052-053-290300-
   East Central Minnesota

CITY           SKY/WX    TMP DP  RH WIND       PRES   REMARKS
PRINCETON      CLEAR     66  57  72 CALM      30.14S
MORA           CLEAR     64  55  72 CALM      30.14F
CAMBRIDGE      CLEAR     70  55  60 CALM      30.12R
RUSH CITY      CLEAR     64  56  74 CALM      30.12S
MOOSE LAKE     CLEAR     64  55  72 W5        30.11R
HINCKLEY       FAIR      66  55  68 NW3       30.13R
CLOQUET        CLEAR     64  54  68 W5        30.12R
MCGREGOR       CLEAR     64  55  72 NW5       30.14S
$$
MNZ071>073-080-081-089-090-097-098-290300-
   Southwest Minnesota

CITY           SKY/WX    TMP DP  RH WIND       PRES   REMARKS
MONTEVIDEO     CLEAR     64  52  63 CALM      30.19S
GRANITE FALLS  CLEAR     62  56  81 W7        30.20S
CANBY          CLEAR     63  54  71 NW5       30.21S
MARSHALL       CLEAR     63  52  67 NW6       30.19S
REDWOOD FALLS  CLEAR     65  54  67 NW5       30.17S
OLIVIA         CLEAR     64  54  68 NW3       30.17S
PIPESTONE      CLEAR     64  54  68 CALM      30.22R
WINDOM         CLEAR     63  55  77 NW5       30.19S
WORTHINGTON    CLEAR     61  54  77 NW5       30.22R
JACKSON        CLEAR     63  54  72 NW5       30.20R
TRACY          CLEAR     63  56  78 NW5       30.20S
SLAYTON        CLEAR     62  54  73 CALM      30.22R
$$
MNZ065>067-074>077-082>085-091>093-290300-
   South Central Minnesota

CITY           SKY/WX    TMP DP  RH WIND       PRES   REMARKS
MANKATO        CLEAR     66  52  59 W5        30.15S
NEW ULM        CLEAR     64  55  72 NW6       30.16S
ST JAMES       CLEAR     64  57  77 W5        30.18S
FAIRMONT       CLEAR     64  54  68 NW6       30.17S
GLENCOE        CLEAR     66  55  67 W5        30.15S
FARIBAULT      CLEAR     66  54  63 W5        30.15S
OWATONNA       PTCLDY    63  55  77 W5        30.15S
WASECA         CLEAR     61  54  77 CALM      30.17S
ALBERT LEA     CLEAR     64  54  68 CALM      30.16S
$$
MNZ078>079-086>088-094>096-290300-
   Southeast Minnesota

CITY           SKY/WX    TMP DP  RH WIND       PRES   REMARKS
ROCHESTER      CLEAR     62  55  77 W6        30.15S
RED WING       PTCLDY    64  57  77 N3        30.11S
STANTON        PTCLDY    68  56  67 W3        30.12S
DODGE CENTER   PTCLDY    64  55  72 W5        30.15S
WINONA         CLEAR     66  57  72 CALM      30.12S
AUSTIN         CLEAR     64  54  68 NW5       30.15S
PRESTON        CLEAR     63  58  85 W5        30.15S
$$
ABBREVIATIONS USED IN REMARKS
   TC - TEMPERATURES IN CELSIUS
  WCI - WIND CHILL INDEX
   HX - HEAT INDEX
  VSB - VISIBILITY
$$



USA.gov is the U.S. government's official web portal to all federal, state and local government web resources and services.